Overview Statistics Trail Chart Weather Telemetry Raw packets
 

This is the latest recevied weather packets stored in our database for station/object KC3UTO. If no packets are shown the sender has not sent any weather packets the latest 10 day(s).

<< 106 107 108 109 110 111 112 >>
Time Temp. Humidity Pressure Rain* Wind** Luminosity Snow
1787762034 26.67° C 53% 1018.6 hPa 0 mm - 79 W/m² -
1787761734 26.67° C 53% 1018.6 hPa 0 mm - 88 W/m² -
1787761429 26.67° C 52% 1018.6 hPa 0 mm - 771 W/m² -
1787761124 27.22° C 52% 1018.7 hPa 0 mm - 222 W/m² -
1787760823 26.67° C 52% 1018.6 hPa 0 mm - 97 W/m² -
1787760522 26.67° C 54% 1018.7 hPa 0 mm - 193 W/m² -
1787760222 26.67° C 54% 1018.7 hPa 0 mm - 819 W/m² -
1787759918 26.11° C 54% 1018.7 hPa 0 mm - 821 W/m² -
1787759614 25.56° C 53% 1018.9 hPa 0 mm - 816 W/m² -
1787759310 25.56° C 54% 1018.9 hPa 0 mm - 813 W/m² -
1787759010 25.56° C 53% 1019 hPa 0 mm - 811 W/m² -
1787758710 25.56° C 52% 1019 hPa 0 mm - 800 W/m² -
1787758406 25.56° C 53% 1019 hPa 0 mm - 744 W/m² -
1787758104 26.11° C 53% 1018.9 hPa 0 mm - 92 W/m² -
1787757800 26.67° C 53% 1019.1 hPa 0 mm - 97 W/m² -
1787757495 26.11° C 52% 1019.1 hPa 0 mm - 352 W/m² -
1787757190 26.67° C 50% 1019.3 hPa 0 mm - 754 W/m² -
1787756888 26.67° C 52% 1019.2 hPa 0 mm - 745 W/m² -
1787756585 26.67° C 51% 1019.2 hPa 0 mm - 741 W/m² -
1787756283 26.67° C 55% 1019.2 hPa 0 mm - 339 W/m² -
1787755978 26.11° C 52% 1019.3 hPa 0 mm - 720 W/m² -
1787755677 25.56° C 53% 1019.3 hPa 0 mm - 711 W/m² -
1787755373 25.56° C 53% 1019.2 hPa 0 mm - 700 W/m² -
1787755072 25.56° C 53% 1019.2 hPa 0 mm - 690 W/m² -
1787754767 25.56° C 55% 1019.3 hPa 0 mm - 680 W/m² -

* Rain latest hour (hover to see other rain measurements)
** Current wind speed in m/s (hover to see current wind gust speed)